Location: Ripley
(48.3812°N, 115.4473°W)
Time: 18:57:35
(UTC+00:00)

EO-88 - Pass Details

Date: 02 July 2022
Orbit: 454 x 462 km, 97.3° (Epoch: 07 August)

Event Time Altitude Azimuth Distance (km) Brightness Sun altitude
Exits shadow 05:44:14 10° 205° (SSW) 1,605 ? -13.6°
Maximum altitude 05:47:12 27° 265° (W) 941 ? -13.8°
Drops below altitude 10° 05:50:13 10° 324° (NW) 1,634 ? -14.0°
Sets 05:52:30 0° 337° (NNW) 2,515 ? -14.2°
